| time (UTC) | temp C | wind direction | speed KPH | gust KPH | rain 1hr cm | rain 24hr cm | rain mn cm | humidity % | barometer mb |
| 20260502162632 | 16 | 329 | 0.0 | 0.0 | 0.00 | 0.05 | 0.05 | 65 | 1035.7 |
| 20260502162129 | 16 | 313 | 0.0 | 0.0 | 0.00 | 0.05 | 0.05 | 63 | 1035.7 |
| 20260502161627 | 16 | 13 | 0.0 | 0.0 | 0.00 | 0.05 | 0.05 | 56 | 1035.8 |
| 20260502161124 | 16 | 154 | 0.0 | 1.6 | 0.00 | 0.05 | 0.05 | 59 | 1035.9 |
| 20260502160621 | 16 | 129 | 1.6 | 1.6 | 0.00 | 0.05 | 0.05 | 60 | 1035.6 |
| 20260502160120 | 16 | 178 | 0.0 | 1.6 | 0.00 | 0.05 | 0.05 | 69 | 1035.6 |
| 20260502152034 | 15 | 65 | 1.6 | 1.6 | 0.00 | 0.05 | 0.05 | 61 | 1035.4 |
| 20260502151531 | 15 | 22 | 0.0 | 0.0 | 0.00 | 0.05 | 0.05 | 78 | 1035.4 |
| 20260502151028 | 14 | 0 | 0.0 | 0.0 | 0.00 | 0.05 | 0.05 | 78 | 1035.3 |
| 20260502150526 | 14 | 1 | 0.0 | 0.0 | 0.00 | 0.05 | 0.05 | 77 | 1035.3 |
| 20260502130410 | 11 | 1 | 0.0 | 0.0 | 0.00 | 0.05 | 0.05 | 89 | 1034.1 |
| 20260502123347 | 10 | 355 | 0.0 | 0.0 | 0.00 | 0.05 | 0.05 | 90 | 1033.6 |
| 20260502122845 | 10 | 355 | 0.0 | 0.0 | 0.00 | 0.05 | 0.05 | 91 | 1033.5 |
| 20260502122340 | 10 | 355 | 0.0 | 0.0 | 0.00 | 0.05 | 0.05 | 92 | 1033.7 |
| 20260502121839 | 10 | 349 | 0.0 | 0.0 | 0.00 | 0.05 | 0.05 | 92 | 1033.5 |
| 20260502121336 | 10 | 358 | 0.0 | 0.0 | 0.00 | 0.05 | 0.05 | 91 | 1033.2 |
| 20260502120833 | 10 | 358 | 0.0 | 0.0 | 0.00 | 0.05 | 0.05 | 91 | 1033.5 |
| 20260502120329 | 10 | 356 | 0.0 | 0.0 | 0.00 | 0.05 | 0.05 | 90 | 1033.3 |
| 20260502115827 | 10 | 348 | 0.0 | 0.0 | 0.00 | 0.05 | 0.05 | 90 | 1033.3 |
| 20260502115324 | 10 | 352 | 0.0 | 0.0 | 0.00 | 0.05 | 0.05 | 91 | 1033.4 |
| 20260502114820 | 10 | 353 | 0.0 | 0.0 | 0.00 | 0.05 | 0.05 | 92 | 1032.9 |
| 20260502114317 | 10 | 354 | 0.0 | 0.0 | 0.00 | 0.05 | 0.05 | 94 | 1032.8 |
| 20260502113814 | 10 | 356 | 0.0 | 0.0 | 0.00 | 0.05 | 0.05 | 95 | 1032.9 |
| 20260502113312 | 10 | 356 | 0.0 | 0.0 | 0.00 | 0.05 | 0.05 | 95 | 1033.0 |
| 20260502112810 | 10 | 358 | 0.0 | 0.0 | 0.00 | 0.05 | 0.05 | 96 | 1033.0 |
| 20260502112307 | 9 | 359 | 0.0 | 0.0 | 0.00 | 0.05 | 0.05 | 97 | 1032.7 |
| 20260502111804 | 9 | 2 | 0.0 | 0.0 | 0.00 | 0.05 | 0.05 | 98 | 1033.2 |
| 20260502111302 | 10 | 5 | 0.0 | 0.0 | 0.00 | 0.05 | 0.05 | 98 | 1033.3 |
| 20260502110759 | 10 | 3 | 0.0 | 0.0 | 0.00 | 0.05 | 0.05 | 99 | 1033.1 |
| 20260502110257 | 10 | 7 | 0.0 | 0.0 | 0.00 | 0.05 | 0.05 | 99 | 1032.9 |
| 20260502105754 | 10 | 19 | 0.0 | 0.0 | 0.00 | 0.05 | 0.05 | 99 | 1033.3 |
| 20260502105250 | 10 | 19 | 0.0 | 0.0 | 0.00 | 0.05 | 0.05 | 99 | 1032.6 |
| 20260502104748 | 10 | 19 | 0.0 | 0.0 | 0.00 | 0.05 | 0.05 | 99 | 1032.7 |
| 20260502104246 | 10 | 22 | 0.0 | 0.0 | 0.00 | 0.05 | 0.05 | 99 | 1032.8 |
| 20260502103743 | 10 | 22 | 0.0 | 0.0 | 0.00 | 0.05 | 0.05 | 99 | 1032.4 |
| 20260502103240 | 10 | 45 | 0.0 | 0.0 | 0.00 | 0.05 | 0.05 | 99 | 1032.6 |
| 20260502102738 | 10 | 46 | 0.0 | 0.0 | 0.00 | 0.05 | 0.05 | 99 | 1032.7 |
| 20260502102233 | 10 | 46 | 0.0 | 0.0 | 0.00 | 0.05 | 0.05 | 99 | 1032.9 |
| 20260502101732 | 10 | 46 | 0.0 | 0.0 | 0.00 | 0.05 | 0.05 | 99 | 1032.6 |
| 20260502101230 | 10 | 46 | 0.0 | 0.0 | 0.00 | 0.05 | 0.05 | 99 | 1032.9 |
| 20260502100727 | 10 | 46 | 0.0 | 0.0 | 0.00 | 0.05 | 0.05 | 99 | 1033.2 |
| 20260502100226 | 10 | 46 | 0.0 | 0.0 | 0.00 | 0.05 | 0.05 | 99 | 1033.2 |
| 20260502091200 | 10 | 46 | 0.0 | 0.0 | 0.00 | 0.05 | 0.05 | 99 | 1032.4 |
| 20260502090657 | 10 | 46 | 0.0 | 0.0 | 0.00 | 0.05 | 0.05 | 99 | 1033.0 |
| 20260502090154 | 10 | 46 | 0.0 | 0.0 | 0.00 | 0.05 | 0.05 | 99 | 1033.1 |
| 20260502071049 | 12 | 51 | 0.0 | 0.0 | 0.00 | 0.03 | 0.03 | 99 | 1032.8 |
| 20260502070548 | 13 | 51 | 0.0 | 0.0 | 0.00 | 0.03 | 0.03 | 99 | 1032.9 |
| 20260502070045 | 13 | 51 | 0.0 | 0.0 | 0.00 | 0.03 | 0.03 | 99 | 1033.2 |
| 20260502065544 | 13 | 51 | 0.0 | 0.0 | 0.00 | 0.03 | 0.03 | 99 | 1033.1 |
| 20260502065041 | 13 | 51 | 0.0 | 0.0 | 0.00 | 0.03 | 0.03 | 99 | 1033.6 |
| 20260502064539 | 13 | 51 | 0.0 | 0.0 | 0.00 | 0.03 | 0.03 | 99 | 1033.5 |
| 20260502064036 | 13 | 51 | 0.0 | 0.0 | 0.00 | 0.03 | 0.03 | 99 | 1033.6 |
| 20260502063534 | 13 | 51 | 0.0 | 0.0 | 0.00 | 0.03 | 0.03 | 99 | 1033.7 |
| 20260502063031 | 13 | 50 | 0.0 | 0.0 | 0.00 | 0.03 | 0.03 | 99 | 1033.4 |
| 20260502062528 | 13 | 50 | 0.0 | 0.0 | 0.00 | 0.03 | 0.03 | 99 | 1033.4 |
| 20260502062026 | 13 | 49 | 0.0 | 0.0 | 0.00 | 0.03 | 0.03 | 99 | 1033.2 |
| 20260502061524 | 13 | 50 | 0.0 | 0.0 | 0.00 | 0.03 | 0.03 | 99 | 1033.3 |
| 20260502061021 | 13 | 50 | 0.0 | 0.0 | 0.00 | 0.03 | 0.03 | 99 | 1033.3 |
| 20260502060516 | 13 | 50 | 0.0 | 0.0 | 0.00 | 0.03 | 0.03 | 99 | 1033.3 |
| 20260502060013 | 13 | 49 | 0.0 | 0.0 | 0.00 | 0.03 | 0.03 | 99 | 1033.4 |
| 20260502055510 | 13 | 49 | 0.0 | 0.0 | 0.00 | 0.03 | 0.03 | 99 | 1033.2 |
| 20260502055009 | 13 | 49 | 0.0 | 0.0 | 0.00 | 0.03 | 0.03 | 99 | 1033.3 |
| 20260502054507 | 13 | 50 | 0.0 | 0.0 | 0.00 | 0.03 | 0.03 | 99 | 1033.3 |
| 20260502054004 | 13 | 49 | 0.0 | 0.0 | 0.00 | 0.03 | 0.03 | 99 | 1033.1 |
| 20260502053501 | 13 | 49 | 0.0 | 0.0 | 0.00 | 0.03 | 0.03 | 99 | 1033.0 |
| 20260502052959 | 13 | 49 | 0.0 | 0.0 | 0.13 | 0.03 | 0.03 | 99 | 1033.0 |
| 20260502052457 | 13 | 49 | 0.0 | 0.0 | 0.13 | 0.03 | 0.03 | 99 | 1033.4 |
| 20260502051955 | 13 | 49 | 0.0 | 0.0 | 0.00 | 0.00 | 0.00 | 99 | 1033.0 |
| 20260502051453 | 13 | 49 | 0.0 | 0.0 | 0.00 | 0.00 | 0.00 | 99 | 1033.2 |
| 20260502050950 | 13 | 49 | 0.0 | 0.0 | 0.00 | 0.00 | 0.00 | 99 | 1033.0 |
| 20260502050446 | 13 | 49 | 0.0 | 0.0 | 0.00 | 0.00 | 0.00 | 99 | 1033.3 |
| 20260502045943 | 13 | 49 | 0.0 | 0.0 | 0.00 | 0.08 | 0.08 | 99 | 1033.2 |
| 20260502045440 | 13 | 49 | 0.0 | 0.0 | 0.00 | 0.08 | 0.08 | 99 | 1033.3 |
| 20260502044937 | 13 | 50 | 0.0 | 0.0 | 0.00 | 0.08 | 0.08 | 99 | 1033.3 |
| 20260502044433 | 13 | 50 | 0.0 | 0.0 | 0.00 | 0.08 | 0.08 | 99 | 1033.4 |
| 20260502043930 | 13 | 50 | 0.0 | 0.0 | 0.00 | 0.08 | 0.08 | 99 | 1033.3 |
| 20260502043428 | 13 | 50 | 0.0 | 0.0 | 0.00 | 0.08 | 0.08 | 99 | 1033.0 |
| 20260502042927 | 13 | 50 | 0.0 | 0.0 | 0.00 | 0.08 | 0.08 | 99 | 1033.1 |
| 20260502042424 | 13 | 50 | 0.0 | 0.0 | 0.00 | 0.08 | 0.08 | 99 | 1033.0 |
| 20260502041921 | 13 | 50 | 0.0 | 0.0 | 0.00 | 0.08 | 0.08 | 99 | 1033.0 |
| 20260502041420 | 13 | 50 | 0.0 | 0.0 | 0.00 | 0.08 | 0.08 | 99 | 1032.9 |
| 20260502040916 | 13 | 50 | 0.0 | 0.0 | 0.00 | 0.08 | 0.08 | 99 | 1033.0 |
| 20260502040413 | 13 | 50 | 0.0 | 0.0 | 0.00 | 0.08 | 0.08 | 99 | 1033.0 |
| 20260502035909 | 13 | 50 | 0.0 | 0.0 | 0.00 | 0.08 | 0.08 | 99 | 1032.8 |
| 20260502035405 | 13 | 50 | 0.0 | 0.0 | 0.00 | 0.08 | 0.08 | 99 | 1032.7 |
| 20260502034903 | 13 | 50 | 0.0 | 0.0 | 0.00 | 0.08 | 0.08 | 99 | 1032.8 |
| 20260502034402 | 13 | 50 | 0.0 | 0.0 | 0.00 | 0.08 | 0.08 | 99 | 1032.8 |
| 20260502033900 | 13 | 50 | 0.0 | 0.0 | 0.00 | 0.08 | 0.08 | 99 | 1032.7 |
| 20260502033357 | 13 | 50 | 0.0 | 0.0 | 0.00 | 0.08 | 0.08 | 99 | 1032.9 |
| 20260502032853 | 13 | 50 | 0.0 | 0.0 | 0.00 | 0.08 | 0.08 | 99 | 1033.1 |
| 20260502032349 | 13 | 50 | 0.0 | 0.0 | 0.00 | 0.08 | 0.08 | 99 | 1033.1 |
| 20260502031847 | 13 | 51 | 0.0 | 0.0 | 0.00 | 0.08 | 0.08 | 99 | 1033.4 |
| 20260502031345 | 13 | 51 | 0.0 | 0.0 | 0.00 | 0.08 | 0.08 | 99 | 1033.4 |
| 20260502030843 | 13 | 51 | 0.0 | 0.0 | 0.00 | 0.08 | 0.08 | 99 | 1033.5 |
| 20260502030341 | 13 | 52 | 0.0 | 0.0 | 0.00 | 0.08 | 0.08 | 99 | 1033.7 |
| 20260502025838 | 13 | 52 | 0.0 | 0.0 | 0.00 | 0.08 | 0.08 | 99 | 1033.6 |
| 20260502025336 | 13 | 52 | 0.0 | 0.0 | 0.00 | 0.08 | 0.08 | 99 | 1033.6 |
| 20260502024834 | 13 | 82 | 0.0 | 0.0 | 0.00 | 0.08 | 0.08 | 99 | 1033.5 |
| 20260502024331 | 13 | 33 | 0.0 | 0.0 | 0.00 | 0.08 | 0.08 | 99 | 1033.5 |
| 20260502023829 | 13 | 8 | 0.0 | 0.0 | 0.00 | 0.08 | 0.08 | 98 | 1033.5 |
| 20260502023327 | 13 | 8 | 0.0 | 0.0 | 0.00 | 0.08 | 0.08 | 98 | 1033.3 |
| 20260502022824 | 13 | 8 | 0.0 | 0.0 | 0.00 | 0.08 | 0.08 | 98 | 1033.4 |
| 20260502022320 | 13 | 9 | 0.0 | 0.0 | 0.00 | 0.08 | 0.08 | 98 | 1034.0 |
| 20260502021817 | 13 | 10 | 0.0 | 0.0 | 0.00 | 0.08 | 0.08 | 97 | 1033.9 |
| 20260502021315 | 13 | 10 | 0.0 | 0.0 | 0.00 | 0.08 | 0.08 | 97 | 1034.0 |
| 20260502020812 | 13 | 10 | 0.0 | 0.0 | 0.00 | 0.08 | 0.08 | 96 | 1033.9 |
| 20260502020309 | 13 | 9 | 0.0 | 0.0 | 0.00 | 0.08 | 0.08 | 96 | 1034.0 |
| 20260502015806 | 13 | 9 | 0.0 | 0.0 | 0.00 | 0.08 | 0.08 | 95 | 1033.9 |
| 20260502015305 | 13 | 10 | 0.0 | 0.0 | 0.00 | 0.08 | 0.08 | 94 | 1034.0 |
| 20260502014800 | 13 | 10 | 0.0 | 0.0 | 0.18 | 0.08 | 0.08 | 93 | 1033.9 |
| 20260502014257 | 13 | 10 | 0.0 | 0.0 | 0.18 | 0.08 | 0.08 | 93 | 1034.0 |
| 20260502013753 | 13 | 10 | 0.0 | 0.0 | 0.00 | 0.05 | 0.05 | 92 | 1033.8 |
| 20260502013249 | 13 | 9 | 0.0 | 0.0 | 0.13 | 0.05 | 0.05 | 91 | 1033.8 |
| 20260502012746 | 13 | 10 | 0.0 | 0.0 | 0.13 | 0.05 | 0.05 | 90 | 1033.9 |
| 20260502012244 | 13 | 9 | 0.0 | 0.0 | 0.18 | 0.03 | 0.03 | 90 | 1033.6 |
| 20260502011741 | 13 | 10 | 0.0 | 0.0 | 0.18 | 0.03 | 0.03 | 89 | 1033.5 |
| 20260502011236 | 13 | 10 | 0.0 | 0.0 | 0.00 | 0.00 | 0.00 | 89 | 1033.5 |
| 20260502010734 | 14 | 10 | 0.0 | 0.0 | 0.00 | 0.00 | 0.00 | 88 | 1033.3 |
| 20260502010230 | 14 | 10 | 0.0 | 0.0 | 0.00 | 0.00 | 0.00 | 87 | 1033.4 |
| 20260502005728 | 14 | 10 | 0.0 | 0.0 | 0.00 | 0.00 | 0.00 | 87 | 1033.2 |
| 20260502005226 | 14 | 10 | 0.0 | 0.0 | 0.00 | 0.00 | 0.00 | 86 | 1032.9 |
| 20260502004722 | 13 | 10 | 0.0 | 0.0 | 0.00 | 0.00 | 0.00 | 85 | 1033.0 |
| 20260502004218 | 13 | 10 | 0.0 | 0.0 | 0.00 | 0.00 | 0.00 | 86 | 1032.9 |
| 20260502003716 | 14 | 10 | 0.0 | 0.0 | 0.00 | 0.00 | 0.00 | 87 | 1032.8 |
| 20260502003213 | 14 | 10 | 0.0 | 0.0 | 0.00 | 0.00 | 0.00 | 86 | 1033.2 |
| 20260502002708 | 14 | 10 | 0.0 | 0.0 | 0.00 | 0.00 | 0.00 | 85 | 1033.1 |
| 20260502002207 | 14 | 10 | 0.0 | 0.0 | 0.00 | 0.00 | 0.00 | 83 | 1032.9 |
| 20260502001704 | 14 | 10 | 0.0 | 0.0 | 0.00 | 0.00 | 0.00 | 83 | 1032.9 |
| 20260502001202 | 14 | 10 | 0.0 | 0.0 | 0.00 | 0.00 | 0.00 | 83 | 1033.1 |
| 20260502000659 | 14 | 10 | 0.0 | 0.0 | 0.00 | 0.00 | 0.00 | 83 | 1032.9 |
| 20260502000157 | 14 | 10 | 0.0 | 0.0 | 0.00 | 0.00 | 0.00 | 82 | 1032.8 |
| 20260501235652 | 15 | 10 | 0.0 | 0.0 | 0.00 | 0.00 | 0.00 | 83 | 1032.6 |
| 20260501235148 | 15 | 10 | 0.0 | 0.0 | 0.00 | 0.00 | 0.00 | 83 | 1032.6 |
| 20260501234644 | 15 | 10 | 0.0 | 0.0 | 0.00 | 0.00 | 0.00 | 83 | 1032.5 |
| 20260501234141 | 15 | 10 | 0.0 | 0.0 | 0.00 | 0.00 | 0.00 | 83 | 1032.6 |
| 20260501233639 | 15 | 10 | 0.0 | 0.0 | 0.00 | 0.00 | 0.00 | 84 | 1032.6 |
| 20260501233136 | 15 | 10 | 0.0 | 0.0 | 0.00 | 0.00 | 0.00 | 84 | 1032.7 |
| 20260501232632 | 15 | 10 | 0.0 | 0.0 | 0.00 | 0.00 | 0.00 | 83 | 1032.5 |
| 20260501232130 | 15 | 9 | 0.0 | 0.0 | 0.00 | 0.00 | 0.00 | 81 | 1032.5 |
| 20260501231627 | 15 | 10 | 0.0 | 0.0 | 0.00 | 0.00 | 0.00 | 79 | 1032.5 |
| 20260501231125 | 15 | 10 | 0.0 | 0.0 | 0.00 | 0.00 | 0.00 | 79 | 1032.5 |
| 20260501230624 | 15 | 10 | 0.0 | 0.0 | 0.00 | 0.00 | 0.00 | 78 | 1032.5 |
| 20260501230122 | 16 | 10 | 0.0 | 0.0 | 0.00 | 0.00 | 0.00 | 80 | 1032.5 |
| 20260501225619 | 16 | 10 | 0.0 | 0.0 | 0.00 | 0.00 | 0.00 | 76 | 1032.6 |
| 20260501225115 | 16 | 10 | 0.0 | 0.0 | 0.00 | 0.00 | 0.00 | 77 | 1032.4 |
| 20260501224612 | 16 | 10 | 0.0 | 0.0 | 0.00 | 0.00 | 0.00 | 76 | 1032.4 |
| 20260501224109 | 16 | 10 | 0.0 | 0.0 | 0.00 | 0.00 | 0.00 | 76 | 1032.4 |
| 20260501223606 | 16 | 10 | 0.0 | 0.0 | 0.00 | 0.00 | 0.00 | 77 | 1032.4 |
| 20260501223102 | 16 | 10 | 0.0 | 0.0 | 0.00 | 0.00 | 0.00 | 77 | 1032.4 |
| 20260501222558 | 16 | 9 | 0.0 | 0.0 | 0.00 | 0.00 | 0.00 | 77 | 1032.3 |
| 20260501222055 | 16 | 9 | 0.0 | 0.0 | 0.00 | 0.00 | 0.00 | 76 | 1032.6 |
| 20260501221552 | 16 | 10 | 0.0 | 0.0 | 0.00 | 0.00 | 0.00 | 76 | 1032.6 |
| 20260501221049 | 16 | 10 | 0.0 | 0.0 | 0.00 | 0.00 | 0.00 | 75 | 1032.6 |
| 20260501220547 | 16 | 9 | 0.0 | 0.0 | 0.00 | 0.00 | 0.00 | 74 | 1032.5 |
| 20260501220044 | 16 | 9 | 0.0 | 0.0 | 0.00 | 0.00 | 0.00 | 75 | 1032.5 |
| 20260501215540 | 16 | 10 | 0.0 | 0.0 | 0.00 | 0.00 | 0.00 | 74 | 1032.3 |
| 20260501215035 | 16 | 10 | 0.0 | 0.0 | 0.00 | 0.00 | 0.00 | 73 | 1032.6 |
| 20260501214531 | 16 | 10 | 0.0 | 0.0 | 0.00 | 0.00 | 0.00 | 73 | 1032.1 |
| 20260501214027 | 16 | 10 | 0.0 | 0.0 | 0.00 | 0.00 | 0.00 | 74 | 1032.1 |
| 20260501213524 | 16 | 10 | 0.0 | 0.0 | 0.00 | 0.00 | 0.00 | 73 | 1032.0 |
| 20260501213020 | 17 | 3 | 0.0 | 0.0 | 0.00 | 0.00 | 0.00 | 73 | 1032.1 |
| 20260501212516 | 17 | 4 | 0.0 | 0.0 | 0.00 | 0.00 | 0.00 | 72 | 1031.9 |
| 20260501212014 | 17 | 5 | 0.0 | 0.0 | 0.00 | 0.00 | 0.00 | 73 | 1031.9 |
| 20260501211510 | 17 | 355 | 0.0 | 0.0 | 0.00 | 0.00 | 0.00 | 73 | 1031.7 |
| 20260501211009 | 17 | 356 | 0.0 | 0.0 | 0.00 | 0.00 | 0.00 | 74 | 1031.7 |
| 20260501210504 | 17 | 359 | 0.0 | 0.0 | 0.00 | 0.00 | 0.00 | 74 | 1031.9 |
| 20260501210001 | 17 | 359 | 0.0 | 0.0 | 0.00 | 0.00 | 0.00 | 75 | 1032.2 |
| 20260501205458 | 17 | 18 | 0.0 | 0.0 | 0.00 | 0.00 | 0.00 | 75 | 1032.2 |
| 20260501204955 | 17 | 19 | 0.0 | 0.0 | 0.00 | 0.00 | 0.00 | 77 | 1032.5 |
| 20260501204451 | 17 | 19 | 0.0 | 0.0 | 0.00 | 0.00 | 0.00 | 74 | 1032.5 |
| 20260501203948 | 17 | 20 | 0.0 | 0.0 | 0.00 | 0.00 | 0.00 | 74 | 1032.8 |
| 20260501203444 | 17 | 20 | 0.0 | 0.0 | 0.00 | 0.00 | 0.00 | 73 | 1032.6 |
| 20260501202942 | 17 | 19 | 0.0 | 0.0 | 0.00 | 0.00 | 0.00 | 71 | 1033.1 |
| 20260501202439 | 18 | 20 | 0.0 | 0.0 | 0.00 | 0.00 | 0.00 | 73 | 1032.7 |
| 20260501201935 | 18 | 19 | 0.0 | 0.0 | 0.00 | 0.00 | 0.00 | 75 | 1033.0 |
| 20260501201432 | 18 | 20 | 0.0 | 0.0 | 0.00 | 0.00 | 0.00 | 73 | 1032.9 |
| 20260501200929 | 18 | 21 | 0.0 | 0.0 | 0.00 | 0.00 | 0.00 | 71 | 1033.0 |
| 20260501200426 | 18 | 50 | 0.0 | 0.0 | 0.00 | 0.00 | 0.00 | 61 | 1033.3 |
| 20260501195924 | 18 | 41 | 0.0 | 0.0 | 0.00 | 0.00 | 0.00 | 70 | 1033.6 |
| 20260501195420 | 18 | 157 | 0.0 | 0.0 | 0.00 | 0.00 | 0.00 | 64 | 1033.6 |
| 20260501194916 | 18 | 154 | 0.0 | 0.0 | 0.00 | 0.00 | 0.00 | 64 | 1033.8 |
| 20260501194412 | 18 | 69 | 0.0 | 0.0 | 0.00 | 0.00 | 0.00 | 68 | 1034.0 |
| 20260501193908 | 18 | 52 | 0.0 | 0.0 | 0.00 | 0.00 | 0.00 | 68 | 1034.2 |
| 20260501193407 | 18 | 357 | 0.0 | 0.0 | 0.00 | 0.00 | 0.00 | 70 | 1034.2 |
| 20260501192904 | 17 | 7 | 0.0 | 0.0 | 0.00 | 0.00 | 0.00 | 76 | 1034.3 |
| 20260501192401 | 17 | 7 | 0.0 | 0.0 | 0.00 | 0.00 | 0.00 | 79 | 1034.4 |
| 20260501191858 | 17 | 7 | 0.0 | 0.0 | 0.00 | 0.00 | 0.00 | 77 | 1034.2 |
| 20260501191355 | 17 | 6 | 0.0 | 0.0 | 0.00 | 0.00 | 0.00 | 77 | 1033.9 |
| 20260501190852 | 17 | 6 | 0.0 | 0.0 | 0.00 | 0.00 | 0.00 | 76 | 1034.0 |
| 20260501190348 | 17 | 6 | 0.0 | 0.0 | 0.00 | 0.00 | 0.00 | 76 | 1034.2 |
| 20260501185843 | 17 | 6 | 0.0 | 0.0 | 0.00 | 0.00 | 0.00 | 76 | 1034.1 |
| 20260501185339 | 17 | 6 | 0.0 | 0.0 | 0.00 | 0.00 | 0.00 | 74 | 1034.3 |
| 20260501184835 | 17 | 12 | 0.0 | 0.0 | 0.00 | 0.00 | 0.00 | 73 | 1034.2 |
| 20260501184331 | 17 | 14 | 0.0 | 0.0 | 0.00 | 0.00 | 0.00 | 72 | 1034.1 |
| 20260501183827 | 17 | 356 | 0.0 | 0.0 | 0.00 | 0.00 | 0.00 | 72 | 1033.7 |
| 20260501183325 | 17 | 37 | 0.0 | 0.0 | 0.00 | 0.00 | 0.00 | 73 | 1033.9 |
| 20260501182821 | 17 | 39 | 0.0 | 0.0 | 0.00 | 0.00 | 0.00 | 74 | 1033.8 |
| 20260501182318 | 17 | 8 | 0.0 | 0.0 | 0.00 | 0.00 | 0.00 | 71 | 1033.9 |
| 20260501181815 | 17 | 34 | 0.0 | 0.0 | 0.00 | 0.00 | 0.00 | 77 | 1033.8 |
| 20260501181312 | 17 | 35 | 0.0 | 0.0 | 0.00 | 0.00 | 0.00 | 73 | 1034.0 |
| 20260501180809 | 17 | 18 | 0.0 | 0.0 | 0.00 | 0.00 | 0.00 | 71 | 1034.1 |
| 20260501180305 | 17 | 154 | 0.0 | 1.6 | 0.00 | 0.00 | 0.00 | 70 | 1034.2 |
| 20260501175802 | 17 | 98 | 0.0 | 0.0 | 0.00 | 0.00 | 0.00 | 72 | 1034.1 |
| 20260501175259 | 17 | 17 | 0.0 | 0.0 | 0.00 | 0.00 | 0.00 | 75 | 1034.1 |
| 20260501174755 | 17 | 15 | 0.0 | 0.0 | 0.00 | 0.00 | 0.00 | 73 | 1034.1 |
| 20260501174253 | 16 | 31 | 0.0 | 0.0 | 0.00 | 0.00 | 0.00 | 78 | 1034.4 |
| 20260501173750 | 16 | 31 | 0.0 | 0.0 | 0.00 | 0.00 | 0.00 | 74 | 1034.5 |
| 20260501173247 | 16 | 31 | 0.0 | 0.0 | 0.00 | 0.00 | 0.00 | 80 | 1034.6 |
| 20260501172743 | 16 | 31 | 0.0 | 0.0 | 0.00 | 0.00 | 0.00 | 81 | 1034.6 |
| 20260501172239 | 16 | 31 | 0.0 | 0.0 | 0.00 | 0.00 | 0.00 | 81 | 1034.7 |
| 20260501171734 | 16 | 31 | 0.0 | 0.0 | 0.00 | 0.00 | 0.00 | 81 | 1034.7 |
| 20260501171232 | 15 | 31 | 0.0 | 0.0 | 0.00 | 0.00 | 0.00 | 81 | 1035.0 |
| 20260501170729 | 16 | 31 | 0.0 | 0.0 | 0.00 | 0.00 | 0.00 | 83 | 1035.1 |
| 20260501170225 | 15 | 31 | 0.0 | 0.0 | 0.00 | 0.00 | 0.00 | 84 | 1035.2 |
| 20260501165723 | 15 | 31 | 0.0 | 0.0 | 0.00 | 0.00 | 0.00 | 83 | 1035.0 |
| 20260501165220 | 15 | 31 | 0.0 | 0.0 | 0.00 | 0.00 | 0.00 | 84 | 1035.0 |
| 20260501164718 | 15 | 31 | 0.0 | 0.0 | 0.00 | 0.00 | 0.00 | 83 | 1034.8 |
| 20260501164215 | 15 | 32 | 0.0 | 0.0 | 0.00 | 0.00 | 0.00 | 80 | 1035.1 |
| 20260501163711 | 15 | 18 | 0.0 | 0.0 | 0.00 | 0.00 | 0.00 | 83 | 1035.0 |
| 20260501163208 | 15 | 17 | 0.0 | 0.0 | 0.00 | 0.00 | 0.00 | 83 | 1034.7 |